When you browse on this site, cookies collect data to enhance your experience and personalize the content and advertising you see.
Visit our Privacy Policy to learn more. By continuing to use the site, you agree to this use of cookies and data.
  • In Slovakia
  • List of Countries
  • For 7 days
  • Water Temperature
  • Satellite Maps
  • Weather Map
  • Weather Widgets
  • user-avatar
    Login

    Hourly Weather Staroyanbaevo

    Today, 20 November, Tuesday

    Time Temperature Precipitation Wind Pressure Humidity
    00:00 0°C° 0.2 mm 1 mps 755 mmHg 96%
    01:00 -1°C° 0.2 mm 1 mps 755 mmHg 96%
    02:00 -1°C° 0.2 mm 1 mps 754 mmHg 96%
    03:00 -1°C° 0.2 mm 1 mps 754 mmHg 96%
    04:00 -1°C° 0 mm 1 mps 754 mmHg 97%
    05:00 -1°C° 0.2 mm 1 mps 754 mmHg 97%
    06:00 -1°C° 0.2 mm 1 mps 754 mmHg 97%
    07:00 -1°C° 0.2 mm 1 mps 754 mmHg 97%
    08:00 -1°C° 0.1 mm 1 mps 754 mmHg 96%
    09:00 -1°C° 0.1 mm 1 mps 754 mmHg 95%
    10:00 0°C° 0.1 mm 1 mps 754 mmHg 94%
    11:00 0°C° 0 mm 1 mps 753 mmHg 93%
    12:00 0°C° 0 mm 1 mps 753 mmHg 92%
    13:00 0°C° 0 mm 1 mps 753 mmHg 91%
    14:00 0°C° 0 mm 1 mps 753 mmHg 92%
    15:00 0°C° 0 mm 1 mps 752 mmHg 94%
    16:00 -2°C° 0 mm 2 mps 752 mmHg 95%
    17:00 -2°C° 0 mm 2 mps 752 mmHg 95%
    18:00 -3°C° 0 mm 2 mps 751 mmHg 96%
    19:00 -3°C° 0 mm 2 mps 751 mmHg 96%
    20:00 -3°C° 0 mm 2 mps 751 mmHg 95%
    21:00 -4°C° 0 mm 3 mps 750 mmHg 95%
    22:00 -4°C° 0 mm 3 mps 750 mmHg 95%
    23:00 -4°C° 0.1 mm 3 mps 749 mmHg 93%

    Tomorrow, 21 November, Wednesday

    Time Temperature Precipitation Wind Pressure Humidity
    00:00 -4°C° 0.1 mm 4 mps 749 mmHg 91%
    01:00 -4°C° 0.1 mm 4 mps 748 mmHg 89%
    02:00 -5°C° 0 mm 4 mps 748 mmHg 88%
    03:00 -6°C° 0 mm 5 mps 747 mmHg 88%
    04:00 -6°C° 0 mm 5 mps 746 mmHg 87%
    05:00 -6°C° 0.1 mm 5 mps 746 mmHg 88%
    06:00 -7°C° 0.1 mm 5 mps 745 mmHg 88%
    07:00 -8°C° 0.1 mm 6 mps 744 mmHg 89%
    08:00 -8°C° 0.3 mm 6 mps 743 mmHg 89%
    09:00 -8°C° 0.3 mm 6 mps 743 mmHg 89%
    10:00 -6°C° 0.3 mm 6 mps 742 mmHg 90%
    11:00 -6°C° 0.5 mm 6 mps 741 mmHg 90%
    12:00 -6°C° 0.5 mm 6 mps 740 mmHg 90%
    13:00 -6°C° 0.5 mm 6 mps 739 mmHg 90%
    14:00 -6°C° 0.3 mm 6 mps 739 mmHg 90%
    15:00 -6°C° 0.3 mm 5 mps 739 mmHg 91%
    16:00 -6°C° 0.3 mm 5 mps 738 mmHg 91%
    17:00 -6°C° 0.3 mm 5 mps 738 mmHg 91%
    18:00 -5°C° 0.3 mm 6 mps 738 mmHg 90%
    19:00 -5°C° 0.3 mm 6 mps 738 mmHg 90%
    20:00 -6°C° 0.1 mm 6 mps 738 mmHg 89%
    21:00 -7°C° 0.1 mm 5 mps 738 mmHg 87%
    22:00 -8°C° 0.1 mm 5 mps 738 mmHg 86%
    23:00 -8°C° 0.2 mm 5 mps 738 mmHg 86%

    Day after tomorrow, 22 November, Thursday

    Time Temperature Precipitation Wind Pressure Humidity
    00:00 -8°C° 0.2 mm 5 mps 738 mmHg 87%
    01:00 -8°C° 0.2 mm 5 mps 738 mmHg 88%
    02:00 -8°C° 0.1 mm 4 mps 738 mmHg 88%
    03:00 -9°C° 0.1 mm 4 mps 739 mmHg 89%
    04:00 -8°C° 0.1 mm 3 mps 739 mmHg 89%
    05:00 -9°C° 0.2 mm 4 mps 739 mmHg 90%
    06:00 -10°C° 0.2 mm 4 mps 739 mmHg 91%
    07:00 -10°C° 0.2 mm 4 mps 739 mmHg 92%
    08:00 -10°C° 0.2 mm 4 mps 739 mmHg 90%
    09:00 -11°C° 0.2 mm 5 mps 740 mmHg 88%
    10:00 -11°C° 0.2 mm 5 mps 740 mmHg 86%
    11:00 -11°C° 0 mm 5 mps 740 mmHg 83%
    12:00 -11°C° 0 mm 4 mps 740 mmHg 79%
    13:00 -11°C° 0 mm 4 mps 740 mmHg 76%
    14:00 -12°C° 0 mm 3 mps 740 mmHg 80%
    15:00 -13°C° 0 mm 3 mps 740 mmHg 84%
    16:00 -13°C° 0 mm 2 mps 740 mmHg 88%
    17:00 -14°C° 0 mm 3 mps 739 mmHg 89%
    18:00 -13°C° 0 mm 3 mps 739 mmHg 90%
    19:00 -14°C° 0 mm 4 mps 739 mmHg 91%
    20:00 -13°C° 0.3 mm 5 mps 738 mmHg 91%
    21:00 -12°C° 0.3 mm 6 mps 737 mmHg 91%
    22:00 -12°C° 0.3 mm 7 mps 736 mmHg 91%
    23:00 -12°C° 0.6 mm 7 mps 735 mmHg 91%

    23 November, Friday

    Time Temperature Precipitation Wind Pressure Humidity
    00:00 -10°C° 0.6 mm 6 mps 734 mmHg 92%
    01:00 -9°C° 0.6 mm 6 mps 734 mmHg 92%
    02:00 -9°C° 0.5 mm 6 mps 733 mmHg 93%
    03:00 -8°C° 0.5 mm 5 mps 733 mmHg 93%
    04:00 -8°C° 0.5 mm 5 mps 733 mmHg 94%
    05:00 -8°C° 0.6 mm 4 mps 732 mmHg 94%
    06:00 -8°C° 0.6 mm 4 mps 732 mmHg 95%
    07:00 -7°C° 0.6 mm 3 mps 732 mmHg 95%
    08:00 -7°C° 0.4 mm 3 mps 733 mmHg 95%
    09:00 -7°C° 0.4 mm 3 mps 733 mmHg 94%
    10:00 -7°C° 0.4 mm 3 mps 733 mmHg 94%
    11:00 -7°C° 0.3 mm 3 mps 734 mmHg 93%
    12:00 -7°C° 0.3 mm 3 mps 735 mmHg 93%
    13:00 -9°C° 0.3 mm 4 mps 735 mmHg 92%
    14:00 -10°C° 0.2 mm 5 mps 736 mmHg 91%
    15:00 -11°C° 0.2 mm 6 mps 737 mmHg 90%
    16:00 -12°C° 0.2 mm 6 mps 737 mmHg 88%
    17:00 -14°C° 0.1 mm 7 mps 738 mmHg 87%
    18:00 -14°C° 0.1 mm 7 mps 739 mmHg 85%
    19:00 -15°C° 0.1 mm 7 mps 740 mmHg 83%
    20:00 -16°C° 0 mm 6 mps 741 mmHg 84%
    21:00 -17°C° 0 mm 6 mps 742 mmHg 85%
    22:00 -18°C° 0 mm 5 mps 743 mmHg 86%
    23:00 -18°C° 0 mm 4 mps 744 mmHg 89%

    24 November, Saturday

    Time Temperature Precipitation Wind Pressure Humidity
    00:00 -19°C° 0 mm 4 mps 744 mmHg 92%
    01:00 -18°C° 0 mm 3 mps 745 mmHg 95%
    02:00 -19°C° 0 mm 3 mps 746 mmHg 96%
    03:00 -19°C° 0 mm 3 mps 746 mmHg 97%
    04:00 -19°C° 0 mm 2 mps 747 mmHg 97%
    05:00 -18°C° 0 mm 2 mps 747 mmHg 98%
    06:00 -18°C° 0 mm 2 mps 747 mmHg 98%
    07:00 -18°C° 0 mm 2 mps 747 mmHg 98%
    08:00 -17°C° 0.1 mm 3 mps 747 mmHg 97%
    09:00 -17°C° 0.1 mm 4 mps 747 mmHg 96%
    10:00 -17°C° 0.1 mm 5 mps 747 mmHg 95%
    11:00 -15°C° 0.3 mm 6 mps 746 mmHg 94%
    12:00 -12°C° 0.3 mm 6 mps 746 mmHg 93%
    13:00 -12°C° 0.3 mm 7 mps 745 mmHg 91%
    14:00 -11°C° 0.4 mm 7 mps 745 mmHg 91%
    15:00 -11°C° 0.4 mm 7 mps 744 mmHg 91%
    16:00 -11°C° 0.4 mm 8 mps 744 mmHg 91%
    17:00 -10°C° 0.2 mm 8 mps 744 mmHg 89%
    18:00 -10°C° 0.2 mm 8 mps 743 mmHg 88%
    19:00 -10°C° 0.2 mm 8 mps 743 mmHg 87%
    20:00 -10°C° 0.2 mm 8 mps 743 mmHg 87%
    21:00 -10°C° 0.2 mm 8 mps 742 mmHg 88%
    22:00 -8°C° 0.2 mm 8 mps 742 mmHg 88%
    23:00 -8°C° 0.3 mm 8 mps 742 mmHg 88%

    25 November, Sunday

    Time Temperature Precipitation Wind Pressure Humidity
    00:00 -8°C° 0.3 mm 8 mps 742 mmHg 88%
    01:00 -9°C° 0.3 mm 9 mps 741 mmHg 88%
    02:00 -8°C° 0.3 mm 8 mps 742 mmHg 88%
    03:00 -7°C° 0.3 mm 8 mps 742 mmHg 88%
    04:00 -7°C° 0.3 mm 8 mps 742 mmHg 88%
    05:00 -7°C° 0.1 mm 8 mps 742 mmHg 87%
    06:00 -7°C° 0.1 mm 7 mps 743 mmHg 87%
    07:00 -7°C° 0.1 mm 7 mps 744 mmHg 87%
    08:00 -7°C° 0.1 mm 7 mps 744 mmHg 87%
    09:00 -6°C° 0.1 mm 6 mps 745 mmHg 88%
    10:00 -8°C° 0.1 mm 6 mps 746 mmHg 88%
    11:00 -6°C° 0.1 mm 6 mps 746 mmHg 88%
    12:00 -6°C° 0.1 mm 6 mps 746 mmHg 89%
    13:00 -6°C° 0.1 mm 5 mps 747 mmHg 89%
    14:00 -7°C° 0.1 mm 5 mps 747 mmHg 89%
    15:00 -7°C° 0.1 mm 5 mps 747 mmHg 90%
    16:00 -7°C° 0.1 mm 4 mps 747 mmHg 90%
    17:00 -7°C° 0.1 mm 5 mps 748 mmHg 90%
    18:00 -7°C° 0.1 mm 5 mps 748 mmHg 91%
    19:00 -7°C° 0.1 mm 5 mps 748 mmHg 91%
    20:00 -7°C° 0.1 mm 4 mps 748 mmHg 92%
    21:00 -8°C° 0.1 mm 4 mps 748 mmHg 92%
    22:00 -8°C° 0.1 mm 4 mps 748 mmHg 92%
    23:00 -8°C° 0.1 mm 4 mps 748 mmHg 92%
    Show more